GW2591 Weather Reports


Display with metric or nautical units.
time (UTC)temp
F
wind
direction
speed
MPH
gust
MPH
rain 1hr
in
rain 24hr
in
rain mn
in
humidity
%
barometer
mb
20260903020255 81 199 4.0 8.0 0.00 0.00 0.00 77 1014.5
20260903015750 81 197 5.0 8.0 0.00 0.00 0.00 77 1014.3
20260903015246 81 206 5.0 6.0 0.00 0.00 0.00 77 1014.2
20260903014741 81 201 4.0 7.0 0.00 0.00 0.00 76 1014.2
20260903014240 82 211 5.0 7.0 0.00 0.00 0.00 76 1014.4
20260903013736 82 211 4.0 7.0 0.00 0.00 0.00 76 1014.2
20260903013235 82 188 2.0 6.0 0.00 0.00 0.00 76 1014.4
20260903012733 82 208 3.0 6.0 0.00 0.00 0.00 75 1014.1
20260903012228 82 204 4.0 6.0 0.00 0.00 0.00 75 1014.2
20260903011728 82 211 3.0 7.0 0.00 0.00 0.00 74 1014.2
20260903011221 82 197 4.0 7.0 0.00 0.00 0.00 74 1014.2
20260903010717 83 213 3.0 7.0 0.00 0.00 0.00 73 1014.2
20260903010217 83 212 5.0 6.0 0.00 0.00 0.00 72 1014.1
20260903005716 83 208 2.0 6.0 0.00 0.00 0.00 71 1014.1
20260903005211 84 192 4.0 6.0 0.00 0.00 0.00 70 1013.9
20260903004707 84 208 4.0 5.0 0.00 0.00 0.00 69 1013.9
20260903004202 84 208 4.0 5.0 0.00 0.00 0.00 68 1013.9
20260903003658 85 210 5.0 7.0 0.00 0.00 0.00 67 1013.7
20260903003153 85 202 3.0 6.0 0.00 0.00 0.00 66 1013.6
20260903002648 86 218 3.0 7.0 0.00 0.00 0.00 65 1013.8
20260903002142 86 205 5.0 7.0 0.00 0.00 0.00 64 1013.7
20260903001636 86 238 2.0 5.0 0.00 0.00 0.00 64 1013.7
20260903001131 86 217 4.0 6.0 0.00 0.00 0.00 63 1013.7
20260903000627 86 220 4.0 6.0 0.00 0.00 0.00 63 1013.9
20260903000126 87 225 5.0 7.0 0.00 0.00 0.00 62 1013.6
20260902235625 87 214 4.0 4.0 0.00 0.00 0.00 62 1013.6
20260902235120 87 218 3.0 9.0 0.00 0.00 0.00 61 1013.8
20260902234614 88 244 2.0 4.0 0.00 0.00 0.00 60 1013.6
20260902234113 88 235 4.0 6.0 0.00 0.00 0.00 59 1013.6
20260902233608 88 213 4.0 6.0 0.00 0.00 0.00 59 1013.7
20260902233102 89 236 4.0 7.0 0.00 0.00 0.00 58 1013.6
20260902232602 89 244 2.0 8.0 0.00 0.00 0.00 57 1013.7
20260902232056 89 224 8.0 11.0 0.00 0.00 0.00 56 1013.7
20260902231556 89 243 3.0 8.0 0.00 0.00 0.00 56 1013.6
20260902231050 89 242 4.0 9.0 0.00 0.00 0.00 56 1013.6
20260902230545 90 238 5.0 13.0 0.00 0.00 0.00 55 1013.6
20260902230044 90 245 6.0 10.0 0.00 0.00 0.00 55 1013.6
20260902225539 90 231 5.0 11.0 0.00 0.00 0.00 55 1014.1
20260902225039 90 224 5.0 7.0 0.00 0.00 0.00 54 1013.7
20260902224538 91 233 4.0 10.0 0.00 0.00 0.00 54 1013.8
20260902224034 91 237 4.0 8.0 0.00 0.00 0.00 53 1013.6
20260902223530 91 231 13.0 13.0 0.00 0.00 0.00 53 1013.7
20260902223029 91 237 7.0 13.0 0.00 0.00 0.00 52 1013.8
20260902222528 91 213 5.0 8.0 0.00 0.00 0.00 53 1013.9
20260902222026 91 244 5.0 10.0 0.00 0.00 0.00 53 1014.1
20260902221521 91 246 7.0 13.0 0.00 0.00 0.00 51 1013.9
20260902221016 91 237 5.0 12.0 0.00 0.00 0.00 51 1014.1
20260902220511 91 255 13.0 13.0 0.00 0.00 0.00 51 1013.9
20260902220006 91 257 13.0 13.0 0.00 0.00 0.00 51 1014.1
20260902215502 92 230 10.0 10.0 0.00 0.00 0.00 49 1013.9
20260902214957 92 238 4.0 8.0 0.00 0.00 0.00 48 1014.2
20260902214457 92 224 4.0 11.0 0.00 0.00 0.00 48 1014.1
20260902213955 92 234 4.0 12.0 0.00 0.00 0.00 47 1013.8
20260902213452 92 229 4.0 10.0 0.00 0.00 0.00 46 1013.8
20260902212950 92 244 9.0 13.0 0.00 0.00 0.00 47 1013.7
20260902212447 92 245 6.0 13.0 0.00 0.00 0.00 50 1013.6
20260902211943 92 199 7.0 17.0 0.00 0.00 0.00 49 1014.1
20260902211439 92 236 4.0 15.0 0.00 0.00 0.00 49 1013.9
20260902210933 91 207 12.0 14.0 0.00 0.00 0.00 51 1013.9
20260902210428 92 217 7.0 9.0 0.00 0.00 0.00 49 1013.9
20260902205920 92 242 4.0 15.0 0.00 0.00 0.00 50 1014.1
20260902205415 91 229 5.0 16.0 0.00 0.00 0.00 50 1014.2
20260902204906 92 218 6.0 13.0 0.00 0.00 0.00 50 1014.3
20260902204405 92 216 15.0 15.0 0.00 0.00 0.00 49 1014.3
20260902203901 91 232 7.0 13.0 0.00 0.00 0.00 50 1014.4
20260902203356 92 245 5.0 17.0 0.00 0.00 0.00 49 1014.4
20260902202850 92 229 4.0 10.0 0.00 0.00 0.00 52 1014.5
20260902202346 93 226 6.0 13.0 0.00 0.00 0.00 50 1014.6
20260902201842 92 215 7.0 15.0 0.00 0.00 0.00 51 1014.5
20260902201342 91 209 9.0 12.0 0.00 0.00 0.00 51 1014.6
20260902200837 91 225 6.0 9.0 0.00 0.00 0.00 53 1014.8
20260902200332 92 226 5.0 11.0 0.00 0.00 0.00 51 1014.6
20260902195828 91 222 5.0 8.0 0.00 0.00 0.00 51 1014.6
20260902195327 92 223 4.0 13.0 0.00 0.00 0.00 50 1014.6
20260902194822 94 208 6.0 10.0 0.00 0.00 0.00 47 1014.7
20260902194317 93 239 5.0 13.0 0.00 0.00 0.00 47 1014.7
20260902193812 93 242 8.0 12.0 0.00 0.00 0.00 46 1014.9
20260902193308 92 237 8.0 16.0 0.00 0.00 0.00 50 1015.0
20260902192807 93 259 8.0 15.0 0.00 0.00 0.00 48 1015.1
20260902192307 93 212 5.0 14.0 0.00 0.00 0.00 46 1015.1
20260902191805 93 228 9.0 13.0 0.00 0.00 0.00 47 1014.9
20260902191301 93 245 11.0 19.0 0.00 0.00 0.00 48 1015.2
20260902190756 93 234 5.0 13.0 0.00 0.00 0.00 50 1015.2
20260902190255 93 221 8.0 13.0 0.00 0.00 0.00 49 1015.3
20260902185751 93 225 10.0 13.0 0.00 0.00 0.00 50 1015.4
20260902185246 92 252 13.0 15.0 0.00 0.00 0.00 52 1015.3
20260902184742 92 248 18.0 18.0 0.00 0.00 0.00 49 1015.3
20260902184242 92 239 9.0 11.0 0.00 0.00 0.00 53 1015.3
20260902183738 92 261 10.0 14.0 0.00 0.00 0.00 54 1015.4
20260902183234 91 258 9.0 18.0 0.00 0.00 0.00 54 1015.5
20260902182730 91 248 13.0 19.0 0.00 0.00 0.00 52 1015.5
20260902182226 91 250 7.0 17.0 0.00 0.00 0.00 53 1015.5
20260902181723 91 234 6.0 16.0 0.00 0.00 0.00 52 1015.6
20260902181222 91 232 5.0 13.0 0.00 0.00 0.00 53 1015.7
20260902180717 91 238 6.0 19.0 0.00 0.00 0.00 52 1015.7
20260902180213 91 221 8.0 13.0 0.00 0.00 0.00 52 1015.7
20260902175708 90 237 9.0 15.0 0.00 0.00 0.00 55 1015.8
20260902175204 92 254 9.0 15.0 0.00 0.00 0.00 51 1015.8
20260902174659 91 255 9.0 14.0 0.00 0.00 0.00 55 1015.9
20260902174155 90 240 9.0 14.0 0.00 0.00 0.00 56 1016.1
20260902173650 91 224 6.0 15.0 0.00 0.00 0.00 55 1016.1
20260902173145 90 246 6.0 15.0 0.00 0.00 0.00 56 1016.2
20260902172639 90 232 4.0 12.0 0.00 0.00 0.00 52 1016.1
20260902172138 90 263 7.0 12.0 0.00 0.00 0.00 58 1016.1
20260902171634 90 242 3.0 11.0 0.00 0.00 0.00 56 1016.3
20260902171130 89 247 10.0 15.0 0.00 0.00 0.00 57 1016.2
20260902170625 90 246 4.0 13.0 0.00 0.00 0.00 59 1016.3
20260902170121 89 244 5.0 13.0 0.00 0.00 0.00 59 1016.1
20260902165620 89 248 11.0 12.0 0.00 0.00 0.00 58 1016.2
20260902165115 89 222 3.0 11.0 0.00 0.00 0.00 59 1016.4
20260902164610 88 256 7.0 13.0 0.00 0.00 0.00 60 1016.5
20260902164109 88 249 8.0 18.0 0.00 0.00 0.00 57 1016.5
20260902163605 89 277 12.0 15.0 0.00 0.00 0.00 60 1016.6
20260902163103 88 250 9.0 14.0 0.00 0.00 0.00 60 1016.8
20260902162602 88 230 5.0 13.0 0.00 0.00 0.00 61 1016.7
20260902162057 88 255 4.0 8.0 0.00 0.00 0.00 62 1016.8
20260902161552 88 254 7.0 12.0 0.00 0.00 0.00 60 1016.7
20260902161049 88 240 13.0 13.0 0.00 0.00 0.00 60 1016.7
20260902160544 87 241 9.0 13.0 0.00 0.00 0.00 60 1016.7
20260902160039 87 241 6.0 13.0 0.00 0.00 0.00 62 1016.9
20260902155532 87 247 4.0 9.0 0.00 0.00 0.00 63 1016.5
20260902155031 87 241 6.0 11.0 0.00 0.00 0.00 65 1016.6
20260902154527 87 249 9.0 13.0 0.00 0.00 0.00 63 1016.8
20260902154021 87 241 8.0 13.0 0.00 0.00 0.00 63 1016.6
20260902153520 86 243 7.0 11.0 0.00 0.00 0.00 63 1016.6
20260902153016 86 242 7.0 14.0 0.00 0.00 0.00 65 1016.7
20260902152512 86 249 11.0 14.0 0.00 0.00 0.00 65 1016.7
20260902152007 86 243 5.0 9.0 0.00 0.00 0.00 64 1016.5
20260902151503 86 229 5.0 9.0 0.00 0.00 0.00 65 1016.7
20260902150956 86 219 7.0 7.0 0.00 0.00 0.00 64 1016.4
20260902150452 86 256 4.0 9.0 0.00 0.00 0.00 65 1016.3
20260902145952 85 203 15.0 15.0 0.00 0.00 0.00 65 1016.4
20260902145447 85 227 3.0 8.0 0.00 0.00 0.00 67 1016.4
20260902144941 85 221 7.0 10.0 0.00 0.00 0.00 66 1016.4
20260902144438 84 230 4.0 11.0 0.00 0.00 0.00 66 1016.5
20260902143932 84 237 5.0 11.0 0.00 0.00 0.00 68 1016.4
20260902143427 84 229 4.0 10.0 0.00 0.00 0.00 67 1016.4
20260902142923 84 232 7.0 13.0 0.00 0.00 0.00 67 1016.5
20260902142419 84 257 9.0 12.0 0.00 0.00 0.00 68 1016.3
20260902141914 84 227 4.0 7.0 0.00 0.00 0.00 66 1016.4
20260902141409 84 249 7.0 11.0 0.00 0.00 0.00 67 1016.2
20260902140908 84 233 9.0 11.0 0.00 0.00 0.00 66 1016.1
20260902140404 83 207 5.0 8.0 0.00 0.00 0.00 67 1016.0
20260902135858 83 240 4.0 9.0 0.00 0.00 0.00 69 1016.3
20260902135354 82 234 3.0 9.0 0.00 0.00 0.00 70 1016.3
20260902134853 82 231 6.0 11.0 0.00 0.00 0.00 70 1016.1
20260902134349 82 216 5.0 11.0 0.00 0.00 0.00 71 1016.2
20260902133843 82 229 3.0 10.0 0.00 0.00 0.00 70 1016.0
20260902133343 82 241 3.0 7.0 0.00 0.00 0.00 71 1016.2
20260902132838 82 201 9.0 10.0 0.00 0.00 0.00 72 1016.2
20260902132333 81 229 6.0 7.0 0.00 0.00 0.00 72 1016.3
20260902131829 81 228 4.0 7.0 0.00 0.00 0.00 73 1016.3
20260902131326 80 223 5.0 7.0 0.00 0.00 0.00 74 1016.3
20260902130825 80 216 3.0 7.0 0.00 0.00 0.00 75 1016.2
20260902130321 80 203 4.0 9.0 0.00 0.00 0.00 75 1016.2
20260902125816 80 242 4.0 7.0 0.00 0.00 0.00 75 1016.3
20260902125312 79 206 4.0 10.0 0.00 0.00 0.00 76 1016.1
20260902124808 79 236 2.0 10.0 0.00 0.00 0.00 77 1016.3
20260902124303 78 232 3.0 6.0 0.00 0.00 0.00 77 1016.3
20260902123758 78 250 4.0 9.0 0.00 0.00 0.00 78 1016.2
20260902123254 78 259 2.0 5.0 0.00 0.00 0.00 79 1016.2
20260902122752 78 219 3.0 5.0 0.00 0.00 0.00 79 1016.3
20260902122249 77 216 3.0 6.0 0.00 0.00 0.00 80 1016.3
20260902121743 77 211 3.0 6.0 0.00 0.00 0.00 80 1016.3
20260902121238 77 209 3.0 5.0 0.00 0.00 0.00 80 1016.2
20260902120733 77 210 3.0 6.0 0.00 0.00 0.00 81 1016.2
20260902120229 77 225 2.0 11.0 0.00 0.00 0.00 81 1016.4
20260902115724 76 212 3.0 8.0 0.00 0.00 0.00 82 1016.2
20260902115220 76 204 4.0 9.0 0.00 0.00 0.00 82 1016.2
20260902114716 76 211 3.0 7.0 0.00 0.00 0.00 82 1016.2
20260902114211 76 217 4.0 8.0 0.00 0.00 0.00 83 1016.0
20260902113706 76 208 4.0 9.0 0.00 0.00 0.00 82 1016.1
20260902113201 76 211 4.0 6.0 0.00 0.00 0.00 83 1016.1
20260902112701 76 223 3.0 7.0 0.00 0.00 0.00 83 1016.1
20260902112158 75 216 5.0 6.0 0.00 0.00 0.00 84 1015.9
20260902111654 75 212 2.0 6.0 0.00 0.00 0.00 84 1016.0
20260902111149 75 212 3.0 4.0 0.00 0.00 0.00 84 1015.9
20260902110644 75 212 3.0 5.0 0.00 0.00 0.00 84 1015.8
20260902110141 75 225 2.0 4.0 0.00 0.00 0.00 84 1015.9
20260902105640 75 227 2.0 5.0 0.00 0.00 0.00 84 1015.9
20260902105136 75 230 3.0 6.0 0.00 0.00 0.00 84 1015.7
20260902104631 75 219 3.0 4.0 0.00 0.00 0.00 84 1015.7
20260902104126 75 246 2.0 5.0 0.00 0.00 0.00 84 1015.7
20260902103625 75 220 1.0 3.0 0.00 0.00 0.00 85 1015.8
20260902103121 75 235 2.0 5.0 0.00 0.00 0.00 84 1015.6
20260902102617 75 221 2.0 3.0 0.00 0.00 0.00 85 1015.7
20260902102114 75 227 3.0 3.0 0.00 0.00 0.00 84 1015.5
20260902101609 75 236 3.0 4.0 0.00 0.00 0.00 84 1015.7
20260902101103 75 257 4.0 5.0 0.00 0.00 0.00 84 1015.8
20260902100602 76 264 3.0 5.0 0.00 0.00 0.00 83 1015.6
20260902100058 76 252 4.0 5.0 0.00 0.00 0.00 83 1015.6
20260902095551 76 212 2.0 5.0 0.00 0.00 0.00 83 1015.6
20260902095051 76 221 3.0 4.0 0.00 0.00 0.00 83 1015.7
20260902094546 76 218 3.0 6.0 0.00 0.00 0.00 83 1015.6
20260902094042 76 212 3.0 5.0 0.00 0.00 0.00 83 1015.6
20260902093537 76 202 3.0 5.0 0.00 0.00 0.00 83 1015.6
20260902093037 76 203 5.0 8.0 0.00 0.00 0.00 83 1015.8
20260902092532 76 203 5.0 7.0 0.00 0.00 0.00 83 1015.6
20260902092027 77 212 3.0 6.0 0.00 0.00 0.00 82 1015.8
20260902091522 76 201 3.0 6.0 0.00 0.00 0.00 83 1015.7
20260902091018 76 205 3.0 5.0 0.00 0.00 0.00 83 1015.6
20260902090514 76 204 3.0 5.0 0.00 0.00 0.00 84 1015.7
20260902090013 76 208 3.0 4.0 0.00 0.00 0.00 84 1015.6
20260902085513 76 174 1.0 5.0 0.00 0.00 0.00 85 1015.5
20260902085008 75 208 2.0 4.0 0.00 0.00 0.00 85 1015.8
20260902084504 75 193 2.0 4.0 0.00 0.00 0.00 85 1015.5
20260902084000 75 200 3.0 7.0 0.00 0.00 0.00 86 1015.4
20260902083455 75 201 3.0 5.0 0.00 0.00 0.00 86 1015.7
20260902082949 75 194 3.0 5.0 0.00 0.00 0.00 86 1015.4
20260902082445 75 202 3.0 6.0 0.00 0.00 0.00 86 1015.5
20260902081941 76 209 3.0 6.0 0.00 0.00 0.00 85 1015.4
20260902081437 76 212 5.0 6.0 0.00 0.00 0.00 85 1015.4
20260902080932 76 202 5.0 8.0 0.00 0.00 0.00 85 1015.4
20260902080428 76 192 3.0 8.0 0.00 0.00 0.00 84 1015.5
20260902075928 77 202 4.0 10.0 0.00 0.00 0.00 84 1015.2
20260902075424 77 207 4.0 8.0 0.00 0.00 0.00 84 1015.2
20260902074919 76 206 7.0 10.0 0.00 0.00 0.00 84 1015.4
20260902074414 76 209 5.0 8.0 0.00 0.00 0.00 84 1015.3
20260902073909 76 204 5.0 7.0 0.00 0.00 0.00 85 1015.5
20260902073405 76 202 5.0 7.0 0.00 0.00 0.00 85 1015.1
20260902072901 76 208 3.0 6.0 0.00 0.00 0.00 85 1015.1
20260902072357 77 219 3.0 6.0 0.00 0.00 0.00 84 1015.1
20260902071853 77 208 2.0 6.0 0.00 0.00 0.00 84 1015.3
20260902071352 77 204 2.0 3.0 0.00 0.00 0.00 84 1015.2
20260902070849 77 199 3.0 5.0 0.00 0.00 0.00 84 1015.1
20260902070344 77 194 1.0 6.0 0.00 0.00 0.00 83 1015.2
20260902065842 77 202 3.0 5.0 0.00 0.00 0.00 83 1015.0
20260902065338 78 207 2.0 5.0 0.00 0.00 0.00 82 1015.2
20260902064833 78 192 4.0 5.0 0.00 0.00 0.00 82 1015.3
20260902064330 78 207 3.0 7.0 0.00 0.00 0.00 81 1015.3
20260902063825 78 199 4.0 6.0 0.00 0.00 0.00 81 1015.2
20260902063324 78 203 4.0 5.0 0.00 0.00 0.00 81 1015.3
20260902062819 78 209 4.0 5.0 0.00 0.00 0.00 81 1015.5
20260902062314 78 189 2.0 5.0 0.00 0.00 0.00 81 1015.4
20260902061814 79 206 4.0 5.0 0.00 0.00 0.00 80 1015.4
20260902061309 79 203 3.0 4.0 0.00 0.00 0.00 80 1015.6
20260902060806 79 210 3.0 5.0 0.00 0.00 0.00 80 1015.6
20260902060301 79 212 4.0 6.0 0.00 0.00 0.00 80 1015.7
20260902055755 78 213 2.0 3.0 0.00 0.00 0.00 80 1015.6
20260902055247 78 219 3.0 4.0 0.00 0.00 0.00 81 1015.8
20260902054747 78 223 1.0 3.0 0.00 0.00 0.00 81 1015.7
20260902054243 78 229 1.0 3.0 0.00 0.00 0.00 81 1015.8
20260902053737 78 224 1.0 2.0 0.00 0.00 0.00 81 1015.5
20260902053236 78 224 0.0 2.0 0.00 0.00 0.00 81 1015.5
20260902052731 79 220 0.0 2.0 0.00 0.00 0.00 81 1015.4
20260902052227 78 235 3.0 3.0 0.00 0.00 0.00 81 1015.5
20260902051726 78 215 1.0 4.0 0.00 0.00 0.00 81 1015.5
20260902051220 79 206 1.0 3.0 0.00 0.00 0.00 81 1015.4
20260902050715 79 239 2.0 3.0 0.00 0.00 0.00 80 1015.6
20260902050210 79 209 0.0 2.0 0.00 0.00 0.00 80 1015.7
20260902045705 79 230 1.0 4.0 0.00 0.00 0.00 80 1015.5
20260902045201 79 217 1.0 4.0 0.00 0.00 0.00 80 1015.3
20260902044656 79 250 2.0 4.0 0.00 0.00 0.00 80 1015.4
20260902044152 79 237 2.0 4.0 0.00 0.00 0.00 80 1015.4
20260902043647 80 256 4.0 8.0 0.00 0.00 0.00 79 1015.3
20260902043142 80 219 2.0 3.0 0.00 0.00 0.00 79 1015.1
20260902042641 80 225 2.0 4.0 0.00 0.00 0.00 78 1015.2
20260902042137 81 210 2.0 7.0 0.00 0.00 0.00 77 1015.1
20260902041636 81 230 2.0 5.0 0.00 0.00 0.00 77 1015.0
20260902041137 81 233 4.0 7.0 0.00 0.00 0.00 76 1014.8
20260902040631 82 229 3.0 7.0 0.00 0.00 0.00 75 1014.7
20260902040126 82 231 4.0 9.0 0.00 0.00 0.00 75 1014.7
20260902035624 82 224 5.0 9.0 0.00 0.04 0.04 75 1014.7
20260902035120 82 206 9.0 12.0 0.00 0.04 0.04 74 1014.5
20260902034619 82 212 7.0 12.0 0.00 0.04 0.04 75 1014.7
20260902034113 82 209 8.0 17.0 0.00 0.04 0.04 74 1014.8
20260902033612 82 202 15.0 16.0 0.00 0.04 0.04 74 1014.6
20260902033107 82 229 6.0 14.0 0.00 0.04 0.04 75 1014.6
20260902032605 82 209 8.0 11.0 0.00 0.04 0.04 75 1014.8
20260902032100 82 211 6.0 13.0 0.00 0.04 0.04 74 1014.7
20260902031555 82 223 9.0 10.0 0.00 0.04 0.04 76 1014.7
20260902031052 81 202 8.0 9.0 0.00 0.04 0.04 77 1014.8
20260902030551 80 204 5.0 9.0 0.00 0.04 0.04 79 1015.1
20260902030045 78 206 2.0 6.0 0.00 0.04 0.04 83 1015.1
20260902025540 77 175 0.0 2.0 0.00 0.04 0.04 85 1015.2
20260902025036 77 22 0.0 2.0 0.00 0.04 0.04 85 1015.2
20260902024531 77 25 0.0 1.0 0.00 0.04 0.04 85 1015.4
20260902024030 77 26 0.0 1.0 0.00 0.04 0.04 85 1015.4
20260902023526 78 6 0.0 2.0 0.00 0.04 0.04 84 1015.4
20260902023022 78 7 0.0 2.0 0.00 0.04 0.04 83 1015.2
20260902022516 79 322 0.0 2.0 0.00 0.04 0.04 83 1015.2
20260902022012 79 230 1.0 2.0 0.00 0.04 0.04 82 1015.3
20260902021507 79 217 0.0 2.0 0.00 0.04 0.04 82 1015.1
20260902021002 79 223 0.0 2.0 0.00 0.04 0.04 82 1015.2